DW3636 Weather Reports


time (UTC)temp
C
wind
direction
speed
KPH
gust
KPH
rain 1hr
cm
rain 24hr
cm
rain mn
cm
humidity
%
barometer
mb
20200531081540 23 81 0.0 1.6 0.00 0.00 0.00 93 1016.4
20200531080141 23 81 0.0 0.0 0.00 0.00 0.00 93 1016.4
20200531074550 23 81 0.0 0.0 0.00 0.00 0.00 93 1016.3
20200531073114 23 80 0.0 0.0 0.00 0.00 0.00 93 1016.4
20200531071612 23 81 0.0 0.0 0.00 0.00 0.00 92 1016.4
20200531070059 23 80 0.0 3.2 0.00 0.00 0.00 92 1016.5
20200531064615 24 81 0.0 4.8 0.00 0.00 0.00 92 1016.7
20200531063046 24 80 0.0 3.2 0.00 0.00 0.00 92 1016.7
20200531061542 24 81 1.6 4.8 0.00 0.00 0.00 91 1016.8
20200531060024 24 81 0.0 3.2 0.00 0.00 0.00 90 1017.0
20200531054553 24 81 0.0 4.8 0.00 0.00 0.00 89 1017.1
20200531053105 24 81 1.6 3.2 0.00 0.00 0.00 89 1017.3
20200531051520 23 80 0.0 1.6 0.00 0.00 0.00 89 1017.4
20200531050023 24 81 0.0 3.2 0.00 0.00 0.00 89 1017.6
20200531044519 24 81 0.0 4.8 0.00 0.00 0.00 88 1017.7
20200531043010 24 81 0.0 4.8 0.00 0.00 0.00 87 1018.0
20200531041554 25 81 0.0 6.4 0.00 0.00 0.00 86 1018.2
20200531040006 25 83 1.6 11.3 0.00 0.00 0.00 87 1018.5
20200531034517 25 84 0.0 0.0 0.00 0.00 0.00 86 1018.4
20200531033004 25 84 1.6 6.4 0.00 0.00 0.00 86 1018.4
20200531031505 25 86 1.6 6.4 0.00 0.00 0.00 85 1018.4
20200531030008 25 86 1.6 9.7 0.00 0.00 0.00 82 1018.3
20200531024502 25 63 4.8 11.3 0.00 0.00 0.00 83 1017.7
20200531023009 25 118 3.2 9.7 0.00 0.00 0.00 83 1017.5
20200531021752 25 90 1.6 9.7 0.00 0.00 0.00 82 1017.7
20200531021502 25 90 3.2 9.7 0.00 0.00 0.00 82 1017.6
20200531014701 25 48 1.6 6.4 0.00 0.00 0.00 82 1017.9
20200531013401 25 76 1.6 9.7 0.00 0.00 0.00 82 1017.7
20200531011647 25 15 0.0 3.2 0.00 0.00 0.00 81 1017.4
20200531010158 26 113 3.2 8.0 0.00 0.00 0.00 79 1017.6
20200531004810 26 69 1.6 4.8 0.00 0.00 0.00 79 1017.3
20200531003206 26 88 1.6 6.4 0.00 0.00 0.00 78 1017.1
20200531001645 26 81 1.6 6.4 0.00 0.00 0.00 79 1017.0
20200531000203 26 71 4.8 14.5 0.00 0.00 0.00 79 1016.9
20200530234921 27 107 8.0 17.7 0.00 0.00 0.00 76 1016.6
20200530233105 28 279 3.2 16.1 0.00 0.00 0.00 79 1016.2
20200530231613 28 275 4.8 14.5 0.00 0.00 0.00 78 1015.7
20200530230106 28 266 4.8 14.5 0.00 0.00 0.00 79 1015.4
20200530224640 29 244 8.0 14.5 0.00 0.13 0.00 78 1015.5
20200530223127 29 351 4.8 16.1 0.00 0.13 0.00 77 1015.5
20200530221617 29 282 6.4 16.1 0.00 0.13 0.00 78 1015.3
20200530220200 29 252 9.7 16.1 0.00 0.13 0.00 75 1015.4
20200530214746 30 246 9.7 22.5 0.00 0.33 0.00 74 1015.2
20200530213119 30 266 4.8 20.9 0.00 0.33 0.00 75 1015.4
20200530211607 30 273 8.0 19.3 0.00 0.33 0.00 74 1015.4
20200530210110 30 304 8.0 19.3 0.00 0.33 0.00 74 1015.6
20200530204741 30 263 12.9 22.5 0.00 0.33 0.00 74 1015.5
20200530203203 30 244 8.0 19.3 0.00 0.33 0.00 73 1015.8
20200530201642 30 254 11.3 22.5 0.00 0.33 0.00 72 1015.7
20200530200111 31 222 9.7 29.0 0.00 0.33 0.00 72 1015.9
20200530194548 31 298 12.9 25.7 0.00 0.33 0.00 70 1015.8
20200530193048 31 285 6.4 20.9 0.00 0.33 0.00 71 1016.1
20200530191614 31 327 9.7 24.1 0.00 0.33 0.00 69 1016.1
20200530190144 31 265 8.0 20.9 0.00 0.33 0.00 69 1016.1
20200530184615 31 185 9.7 24.1 0.00 0.33 0.00 67 1016.2
20200530183052 31 272 9.7 24.1 0.00 0.33 0.00 68 1016.4
20200530181728 31 252 8.0 24.1 0.00 0.33 0.00 67 1016.7
20200530180105 32 143 6.4 16.1 0.00 0.33 0.00 65 1016.6
20200530174531 31 108 9.7 17.7 0.00 0.33 0.00 66 1016.9
20200530173047 31 141 8.0 17.7 0.00 0.33 0.00 66 1016.9
20200530171631 31 164 8.0 14.5 0.00 0.33 0.00 66 1017.1
20200530164524 31 155 9.7 16.1 0.00 0.33 0.00 66 1017.4
20200530163028 31 146 3.2 9.7 0.00 0.33 0.00 68 1017.6
20200530161512 30 129 4.8 16.1 0.00 0.33 0.00 70 1017.7
20200530160010 30 131 6.4 12.9 0.00 0.33 0.00 69 1017.9
20200530154516 30 165 3.2 17.7 0.00 0.33 0.00 71 1017.8
20200530153009 29 177 6.4 19.3 0.00 0.33 0.00 74 1018.1
20200530150215 28 121 9.7 17.7 0.00 0.33 0.00 76 1018.1
20200530144748 28 117 8.0 17.7 0.00 0.33 0.00 78 1018.1
20200530143058 28 178 6.4 16.1 0.00 0.33 0.00 78 1018.2
20200530141617 28 126 4.8 16.1 0.00 0.33 0.00 79 1018.1
20200530140111 28 130 4.8 14.5 0.00 0.33 0.00 82 1018.2
20200530134655 27 117 4.8 11.3 0.00 0.33 0.00 84 1018.3
20200530133105 27 125 8.0 14.5 0.00 0.33 0.00 83 1018.3
20200530131554 27 139 6.4 12.9 0.00 0.33 0.00 84 1018.5
20200530130050 27 118 3.2 9.7 0.00 0.33 0.00 85 1018.5
20200530124559 26 96 3.2 6.4 0.00 0.33 0.00 86 1018.4
20200530123043 26 74 4.8 9.7 0.00 0.33 0.00 87 1018.4
20200530121522 26 106 1.6 9.7 0.00 0.33 0.00 88 1018.4
20200530120030 25 111 1.6 6.4 0.00 0.33 0.00 90 1018.4
20200530114513 25 122 1.6 4.8 0.00 0.33 0.00 92 1018.3
20200530113007 25 122 0.0 0.0 0.00 0.33 0.00 94 1018.0
20200530111511 24 122 0.0 0.0 0.00 0.33 0.00 95 1017.9
20200530110335 23 122 0.0 0.0 0.00 0.33 0.00 95 1017.8
20200530104625 24 122 0.0 0.0 0.00 0.33 0.00 95 1017.7
20200530103319 24 122 0.0 0.0 0.00 0.33 0.00 95 1017.4
20200530100121 24 122 0.0 1.6 0.00 0.33 0.00 95 1017.2
20200530094604 24 122 0.0 3.2 0.00 0.33 0.00 95 1017.1
20200530093125 24 122 0.0 3.2 0.00 0.33 0.00 95 1017.1
20200530091757 23 122 0.0 3.2 0.00 0.33 0.00 95 1017.0
20200530090127 23 122 0.0 0.0 0.00 0.33 0.00 95 1016.9
20200530084646 24 122 0.0 0.0 0.00 0.33 0.00 94 1017.1
20200530083209 24 122 0.0 0.0 0.00 0.33 0.00 94 1017.0